Location: Ar Ranvel
(48.3000°N, 4.8833°W)
Time: 00:59:13
(UTC+00:00)

CENTAUR R/B - Visible Passes

Search period start: 24 October 2021 00:00
Search period end: 03 November 2021 00:00
Orbit: 729 x 1458 km, 63.5° (Epoch: 16 October)

Date Brightness Start Highest point End Pass type
(mag) Time Alt. Az. Time Alt. Az. Time Alt. Az.
24 Oct 4.3 17:59:44 10° NW 18:05:31 25° N 18:12:04 10° NE visible
24 Oct 3.8 19:51:24 10° NW 19:58:30 38° NNE 19:59:45 36° NE visible
24 Oct 4.0 21:42:06 10° NW 21:46:55 42° NW 21:46:55 42° NW visible
24 Oct 5.4 23:33:37 10° WNW 23:34:05 12° WNW 23:34:05 12° WNW visible
25 Oct 4.0 19:02:56 10° NW 19:09:33 32° NNE 19:12:59 24° ENE visible
25 Oct 3.5 20:53:47 10° NW 21:00:10 58° N 21:00:10 58° N visible
25 Oct 5.0 22:44:47 10° NW 22:47:20 21° WNW 22:47:20 21° WNW visible
26 Oct 4.2 18:14:20 10° NW 18:20:30 28° NNE 18:26:16 14° ENE visible
26 Oct 3.4 20:05:27 10° NW 20:13:06 52° NE 20:13:26 51° NE visible
26 Oct 4.3 21:56:13 10° NW 22:00:37 36° WNW 22:00:37 36° WNW visible
27 Oct 3.7 19:17:07 10° NW 19:24:19 40° NNE 19:26:45 34° ENE visible
27 Oct 3.6 21:07:48 10° NW 21:13:56 58° NW 21:13:56 58° NW visible
27 Oct 5.3 22:59:29 10° WNW 23:01:06 15° WNW 23:01:06 15° WNW visible
28 Oct 3.9 18:28:40 10° NW 18:35:24 33° NNE 18:40:07 20° ENE visible
28 Oct 3.1 20:19:28 10° NW 20:27:18 73° NE 20:27:18 73° NE visible
28 Oct 4.7 22:10:33 10° NW 22:14:29 27° WNW 22:14:29 27° WNW visible
29 Oct 4.1 17:40:06 10° NW 17:46:23 28° NNE 17:53:26 10° ENE visible
29 Oct 3.3 19:31:09 10° NW 19:38:52 55° NE 19:40:44 47° ENE visible
29 Oct 3.9 21:21:57 10° NW 21:27:55 47° W 21:27:55 47° W visible
30 Oct 3.6 18:42:48 10° NW 18:50:08 42° NNE 18:54:13 27° E visible
30 Oct 3.2 20:33:30 10° NW 20:41:25 78° WSW 20:41:25 78° WSW visible
30 Oct 5.1 22:25:23 10° WNW 22:28:37 19° W 22:28:37 19° W visible
31 Oct 3.9 17:54:24 10° NW 18:01:14 34° NNE 18:07:48 14° E visible
31 Oct 3.1 19:45:09 10° NW 19:53:13 78° NE 19:55:00 60° ESE visible
31 Oct 4.4 21:36:21 10° NW 21:42:12 33° W 21:42:12 33° W visible
01 Nov 3.3 18:56:50 10° NW 19:04:38 58° NE 19:08:40 33° ESE visible
01 Nov 3.7 20:47:41 10° NW 20:55:34 51° WSW 20:55:53 51° SW visible
01 Nov 5.5 22:41:50 10° W 22:43:06 11° W 22:43:06 11° W visible
02 Nov 3.5 18:08:30 10° NW 18:15:56 45° NE 18:22:28 17° E visible
02 Nov 3.3 19:59:12 10° NW 20:07:19 73° SW 20:09:41 52° S visible
02 Nov 5.0 21:51:20 10° WNW 21:56:55 21° WSW 21:56:55 21° WSW visible
